This is the latest recevied weather packets stored in our database for station/object N7WSS. If no packets are shown the sender has not sent any weather packets the latest 10 day(s).
| Time | Temp. | Humidity | Pressure | Rain* | Wind** | Luminosity | Snow |
|---|---|---|---|---|---|---|---|
| 1787817976 | 28.89° C | 42% | 1013.3 hPa | 0 mm | - | - | - |
| 1787817674 | 28.89° C | 43% | 1013.5 hPa | 0 mm | - | - | - |
| 1787817373 | 28.89° C | 42% | 1013.5 hPa | 0 mm | - | - | - |
| 1787817069 | 28.89° C | 42% | 1013.5 hPa | 0 mm | - | - | - |
| 1787816768 | 29.44° C | 42% | 1013.6 hPa | 0 mm | - | - | - |
| 1787816463 | 29.44° C | 42% | 1013.7 hPa | 0 mm | - | - | - |
| 1787816163 | 28.89° C | 43% | 1013.8 hPa | 0 mm | - | - | - |
| 1787815858 | 28.33° C | 44% | 1013.9 hPa | 0 mm | - | - | - |
| 1787815554 | 28.33° C | 44% | 1013.7 hPa | 0 mm | - | - | - |
| 1787815250 | 28.33° C | 44% | 1013.9 hPa | 0 mm | - | - | - |
| 1787814946 | 28.89° C | 44% | 1013.8 hPa | 0 mm | - | - | - |
| 1787814645 | 28.89° C | 44% | 1013.3 hPa | 0 mm | - | - | - |
| 1787814345 | 28.89° C | 44% | 1013.5 hPa | 0 mm | - | - | - |
| 1787814040 | 28.89° C | 44% | 1013.8 hPa | 0 mm | - | - | - |
| 1787813736 | 29.44° C | 43% | 1013.5 hPa | 0 mm | - | - | - |
| 1787813431 | 29.44° C | 42% | 1013.7 hPa | 0 mm | - | - | - |
| 1787813127 | 30° C | 41% | 1013.6 hPa | 0 mm | - | - | - |
| 1787812822 | 30° C | 40% | 1013.7 hPa | 0 mm | - | - | - |
| 1787812519 | 30° C | 40% | 1014 hPa | 0 mm | - | - | - |
| 1787812218 | 30° C | 41% | 1013.7 hPa | 0 mm | - | - | - |
| 1787811914 | 29.44° C | 42% | 1013.7 hPa | 0 mm | - | - | - |
| 1787811613 | 29.44° C | 43% | 1013.7 hPa | 0 mm | - | - | - |
| 1787811308 | 30° C | 43% | 1013.7 hPa | 0 mm | - | - | - |
| 1787811002 | 30° C | 44% | 1013.6 hPa | 0 mm | - | - | - |
| 1787810699 | 30° C | 43% | 1013.5 hPa | 0 mm | - | - | - |
* Rain latest hour (hover to see other rain measurements)
** Current wind speed in m/s (hover to see current wind gust speed)